Spokane, WA

8:52 PM PST on February 21, 2017 (GMT -0800)
Felts

Weather History for KSFF - March, 2013

Change the Weather History Date:

Wednesday, March 13, 2013

  Actual Average Record
Temperature  
Mean Temperature 53 °F 40 °F  
Max Temperature 58 °F 50 °F 68 °F (1998)
Min Temperature 47 °F 30 °F 18 °F (2009)
Degree Days  
Heating Degree Days 12 25  
Month to date heating degree days 300 345  
Since 1 July heating degree days 4408 4916  
Cooling Degree Days 0 0  
Month to date cooling degree days 0 0  
Year to date cooling degree days 0 0  
Growing Degree Days 2 (Base 50)    
Moisture  
Dew Point 39 °F    
Average Humidity 61    
Maximum Humidity 71    
Minimum Humidity 51    
Precipitation  
Precipitation T in 0.05 in 0.15 in (2011)
Month to date precipitation 0.33 0.53  
Year to date precipitation 2.56 3.86  
Sea Level Pressure  
Sea Level Pressure 30.14 in    
Wind  
Wind Speed 5 mph (SSW)    
Max Wind Speed 14 mph    
Max Gust Speed 17 mph    
Visibility 10 miles    
Events      
T = Trace of Precipitation, MM = Missing Value Source: NWS Daily Summary

Daily Weather History Graph

Daily Weather History Graph

Search for Another Location

Airport or City:

Trip Planner

Search our weather history database for the weather conditions in past years. The results will help you decide how hot, cold, wet, or windy it might be!

Date:

Astronomy

Mar. 13, 2013 Rise Set
Actual Time 7:05 AM PDT 6:52 PM PDT
Civil Twilight 6:34 AM PDT 7:23 PM PDT
Nautical Twilight 5:59 AM PDT 7:59 PM PDT
Astronomical Twilight 5:22 AM PDT 8:35 PM PDT
Moon 7:36 AM PDT (3/13) 9:27 PM PDT (3/13)
Length of Visible Light 12h 48m
Length of Day
11h 46m
Waxing Crescent, 4% of the Moon is Illuminated
Mar 13
Waxing Crescent
Mar 19
First Quarter
Mar 27
Full
Apr 2
Last Quarter
Apr 10
New

Hourly Weather History & Observations

Time (PDT) Temp. Dew Point Humidity Pressure Visibility Wind Dir Wind Speed Gust Speed Precip Events Conditions
12:53 AM 50.0 °F 42.1 °F 74% 30.09 in 10.0 mi SSW 6.9 mph - 0.00 in   Overcast
1:53 AM 48.9 °F 39.9 °F 71% 30.09 in 10.0 mi Variable 5.8 mph - N/A   Overcast
2:53 AM 48.9 °F 39.0 °F 69% 30.09 in 10.0 mi South 5.8 mph - N/A   Mostly Cloudy
3:53 AM 48.0 °F 39.0 °F 71% 30.09 in 10.0 mi Calm Calm - N/A   Overcast
4:53 AM 48.0 °F 37.9 °F 68% 30.12 in 10.0 mi SSW 5.8 mph - N/A   Overcast
5:53 AM 48.0 °F 37.0 °F 66% 30.13 in 10.0 mi SSW 6.9 mph - 0.00 in   Overcast
6:53 AM 46.9 °F 37.0 °F 68% 30.13 in 10.0 mi SSW 5.8 mph - N/A   Mostly Cloudy
7:53 AM 46.9 °F 37.0 °F 68% 30.14 in 10.0 mi SW 4.6 mph - N/A   Mostly Cloudy
8:53 AM 48.0 °F 37.9 °F 68% 30.15 in 10.0 mi SSW 8.1 mph - N/A   Scattered Clouds
9:53 AM 48.9 °F 37.9 °F 66% 30.18 in 10.0 mi South 10.4 mph - N/A   Scattered Clouds
10:53 AM 51.1 °F 39.0 °F 63% 30.19 in 10.0 mi SSW 9.2 mph - N/A   Scattered Clouds
11:53 AM 54.0 °F 39.0 °F 57% 30.18 in 10.0 mi SSW 10.4 mph 17.3 mph N/A   Clear
12:53 PM 55.0 °F 39.0 °F 55% 30.18 in 10.0 mi South 8.1 mph - N/A   Scattered Clouds
1:53 PM 55.9 °F 39.9 °F 55% 30.17 in 10.0 mi SSW 12.7 mph 16.1 mph N/A   Scattered Clouds
2:53 PM 57.0 °F 39.9 °F 53% 30.16 in 10.0 mi South 10.4 mph - N/A   Scattered Clouds
3:53 PM 57.0 °F 39.9 °F 53% 30.16 in 10.0 mi SW 6.9 mph - N/A   Mostly Cloudy
4:53 PM 57.9 °F 39.9 °F 51% 30.15 in 10.0 mi SW 5.8 mph - N/A   Scattered Clouds
5:53 PM 57.0 °F 39.9 °F 53% 30.14 in 10.0 mi Calm Calm - N/A   Mostly Cloudy
6:53 PM 55.9 °F 39.9 °F 55% 30.14 in 10.0 mi Calm Calm - N/A   Overcast
7:53 PM 53.1 °F 41.0 °F 64% 30.15 in 10.0 mi Calm Calm - N/A   Overcast
8:53 PM 52.0 °F 41.0 °F 66% 30.14 in 10.0 mi NE 3.5 mph - N/A   Overcast
9:53 PM 51.1 °F 41.0 °F 68% 30.14 in 10.0 mi East 5.8 mph - N/A   Overcast
10:53 PM 51.1 °F 41.0 °F 68% 30.14 in 10.0 mi Calm Calm - N/A   Overcast
11:53 PM 50.0 °F 41.0 °F 71% 30.12 in 10.0 mi Calm Calm - N/A   Overcast